| time (UTC) | temp F | wind direction | speed knots | gust knots | rain 1hr in | rain 24hr in | rain mn in | humidity % | barometer mb |
| 20260505230526 | 78 | 175 | 8.7 | 16.5 | 0.00 | 0.00 | 0.00 | 36 | 1006.8 |
| 20260505230044 | 78 | 186 | 9.6 | 14.8 | 0.00 | 0.00 | 0.00 | 36 | 1006.9 |
| 20260505225536 | 78 | 182 | 10.4 | 18.2 | 0.00 | 0.00 | 0.00 | 35 | 1006.9 |
| 20260505225041 | 78 | 171 | 9.6 | 18.2 | 0.00 | 0.00 | 0.00 | 36 | 1007.0 |
| 20260505224541 | 79 | 190 | 10.4 | 17.4 | 0.00 | 0.00 | 0.00 | 35 | 1006.9 |
| 20260505224037 | 79 | 155 | 11.3 | 15.6 | 0.00 | 0.00 | 0.00 | 34 | 1006.9 |
| 20260505223529 | 79 | 178 | 10.4 | 20.0 | 0.00 | 0.00 | 0.00 | 33 | 1006.8 |
| 20260505223025 | 80 | 188 | 10.4 | 20.9 | 0.00 | 0.00 | 0.00 | 32 | 1006.9 |
| 20260505222531 | 80 | 187 | 14.8 | 21.7 | 0.00 | 0.00 | 0.00 | 31 | 1006.9 |
| 20260505222044 | 80 | 184 | 12.2 | 21.7 | 0.00 | 0.00 | 0.00 | 29 | 1006.9 |
| 20260505221529 | 80 | 187 | 13.0 | 21.7 | 0.00 | 0.00 | 0.00 | 29 | 1006.8 |
| 20260505221043 | 80 | 196 | 13.0 | 21.7 | 0.00 | 0.00 | 0.00 | 29 | 1006.8 |
| 20260505220535 | 80 | 174 | 16.5 | 22.6 | 0.00 | 0.00 | 0.00 | 28 | 1006.9 |
| 20260505220027 | 81 | 186 | 16.5 | 22.6 | 0.00 | 0.00 | 0.00 | 28 | 1006.9 |
| 20260505215540 | 81 | 198 | 13.9 | 28.7 | 0.00 | 0.00 | 0.00 | 29 | 1006.9 |
| 20260505215035 | 81 | 182 | 15.6 | 28.7 | 0.00 | 0.00 | 0.00 | 29 | 1006.8 |
| 20260505214526 | 82 | 185 | 13.9 | 20.9 | 0.00 | 0.00 | 0.00 | 29 | 1006.8 |
| 20260505214047 | 82 | 175 | 12.2 | 17.4 | 0.00 | 0.00 | 0.00 | 29 | 1006.8 |
| 20260505213603 | 83 | 189 | 13.0 | 22.6 | 0.00 | 0.00 | 0.00 | 29 | 1006.8 |
| 20260505213043 | 83 | 223 | 11.3 | 24.3 | 0.00 | 0.00 | 0.00 | 29 | 1006.8 |
| 20260505212600 | 83 | 184 | 13.0 | 24.3 | 0.00 | 0.00 | 0.00 | 30 | 1006.8 |
| 20260505212036 | 83 | 192 | 13.0 | 20.0 | 0.00 | 0.00 | 0.00 | 29 | 1006.7 |
| 20260505211528 | 83 | 188 | 11.3 | 24.3 | 0.00 | 0.00 | 0.00 | 30 | 1006.7 |
| 20260505211044 | 83 | 174 | 15.6 | 24.3 | 0.00 | 0.00 | 0.00 | 30 | 1006.7 |
| 20260505210537 | 83 | 157 | 15.6 | 22.6 | 0.00 | 0.00 | 0.00 | 30 | 1006.8 |
| 20260505210036 | 84 | 170 | 16.5 | 20.9 | 0.00 | 0.00 | 0.00 | 29 | 1006.7 |
| 20260505205526 | 84 | 176 | 8.7 | 20.9 | 0.00 | 0.00 | 0.00 | 31 | 1006.7 |
| 20260505205044 | 83 | 171 | 12.2 | 23.5 | 0.00 | 0.00 | 0.00 | 30 | 1006.7 |
| 20260505204536 | 84 | 169 | 17.4 | 23.5 | 0.00 | 0.00 | 0.00 | 29 | 1006.9 |
| 20260505204033 | 84 | 170 | 13.0 | 21.7 | 0.00 | 0.00 | 0.00 | 30 | 1006.8 |
| 20260505203526 | 84 | 184 | 13.0 | 21.7 | 0.00 | 0.00 | 0.00 | 32 | 1006.8 |
| 20260505203044 | 84 | 163 | 13.0 | 20.9 | 0.00 | 0.00 | 0.00 | 32 | 1006.8 |
| 20260505202542 | 84 | 192 | 13.0 | 20.9 | 0.00 | 0.00 | 0.00 | 31 | 1006.8 |
| 20260505202039 | 84 | 184 | 15.6 | 22.6 | 0.00 | 0.00 | 0.00 | 31 | 1006.9 |
| 20260505201558 | 84 | 190 | 11.3 | 22.6 | 0.00 | 0.00 | 0.00 | 31 | 1006.7 |
| 20260505201034 | 84 | 178 | 13.0 | 24.3 | 0.00 | 0.00 | 0.00 | 31 | 1006.9 |
| 20260505200526 | 84 | 197 | 8.7 | 21.7 | 0.00 | 0.00 | 0.00 | 32 | 1006.9 |
| 20260505200043 | 84 | 205 | 14.8 | 20.9 | 0.00 | 0.00 | 0.00 | 32 | 1006.9 |
| 20260505195542 | 84 | 159 | 14.8 | 22.6 | 0.00 | 0.00 | 0.00 | 32 | 1007.0 |
| 20260505195043 | 84 | 185 | 14.8 | 22.6 | 0.00 | 0.00 | 0.00 | 32 | 1007.1 |
| 20260505194536 | 84 | 182 | 14.8 | 22.6 | 0.00 | 0.00 | 0.00 | 32 | 1007.2 |
| 20260505194027 | 83 | 186 | 15.6 | 22.6 | 0.00 | 0.00 | 0.00 | 32 | 1007.3 |
| 20260505193526 | 83 | 172 | 17.4 | 22.6 | 0.00 | 0.00 | 0.00 | 32 | 1007.3 |
| 20260505193046 | 84 | 159 | 14.8 | 22.6 | 0.00 | 0.00 | 0.00 | 32 | 1007.5 |
| 20260505192542 | 84 | 166 | 7.8 | 17.4 | 0.00 | 0.00 | 0.00 | 33 | 1007.5 |
| 20260505192038 | 83 | 190 | 10.4 | 18.2 | 0.00 | 0.00 | 0.00 | 32 | 1007.6 |
| 20260505191529 | 83 | 232 | 10.4 | 21.7 | 0.00 | 0.00 | 0.00 | 33 | 1007.6 |
| 20260505191049 | 83 | 180 | 13.9 | 21.7 | 0.00 | 0.00 | 0.00 | 32 | 1007.6 |
| 20260505190543 | 83 | 180 | 13.0 | 20.0 | 0.00 | 0.00 | 0.00 | 32 | 1007.7 |
| 20260505190038 | 83 | 178 | 9.6 | 19.1 | 0.00 | 0.00 | 0.00 | 34 | 1007.7 |
| 20260505185533 | 83 | 194 | 13.0 | 19.1 | 0.00 | 0.00 | 0.00 | 33 | 1007.8 |
| 20260505185029 | 83 | 163 | 12.2 | 19.1 | 0.00 | 0.00 | 0.00 | 33 | 1007.7 |
| 20260505184543 | 83 | 186 | 11.3 | 19.1 | 0.00 | 0.00 | 0.00 | 34 | 1007.8 |
| 20260505184042 | 84 | 196 | 11.3 | 22.6 | 0.00 | 0.00 | 0.00 | 34 | 1007.9 |
| 20260505183538 | 84 | 171 | 17.4 | 22.6 | 0.00 | 0.00 | 0.00 | 32 | 1007.9 |
| 20260505183040 | 83 | 153 | 12.2 | 21.7 | 0.00 | 0.00 | 0.00 | 31 | 1007.9 |
| 20260505182531 | 83 | 252 | 10.4 | 20.9 | 0.00 | 0.00 | 0.00 | 33 | 1008.1 |
| 20260505182026 | 83 | 195 | 7.8 | 16.5 | 0.00 | 0.00 | 0.00 | 33 | 1008.2 |
| 20260505181539 | 84 | 221 | 8.7 | 14.8 | 0.00 | 0.00 | 0.00 | 32 | 1008.2 |
| 20260505181033 | 84 | 219 | 7.8 | 19.1 | 0.00 | 0.00 | 0.00 | 31 | 1008.1 |
| 20260505180552 | 84 | 227 | 7.8 | 19.1 | 0.00 | 0.00 | 0.00 | 32 | 1008.2 |
| 20260505180026 | 84 | 192 | 13.9 | 23.5 | 0.00 | 0.00 | 0.00 | 32 | 1008.3 |
| 20260505175538 | 84 | 196 | 8.7 | 22.6 | 0.00 | 0.00 | 0.00 | 33 | 1008.3 |
| 20260505175038 | 84 | 198 | 7.0 | 16.5 | 0.00 | 0.00 | 0.00 | 33 | 1008.4 |
| 20260505174541 | 84 | 194 | 10.4 | 20.9 | 0.00 | 0.00 | 0.00 | 33 | 1008.3 |
| 20260505174036 | 83 | 248 | 12.2 | 20.9 | 0.00 | 0.00 | 0.00 | 34 | 1008.5 |
| 20260505173554 | 83 | 181 | 12.2 | 18.2 | 0.00 | 0.00 | 0.00 | 32 | 1008.4 |
| 20260505173028 | 83 | 236 | 6.1 | 13.9 | 0.00 | 0.00 | 0.00 | 34 | 1008.4 |
| 20260505172605 | 83 | 207 | 6.1 | 16.5 | 0.00 | 0.00 | 0.00 | 34 | 1008.5 |
| 20260505172043 | 83 | 215 | 10.4 | 16.5 | 0.00 | 0.00 | 0.00 | 33 | 1008.6 |
| 20260505171537 | 82 | 207 | 6.1 | 13.9 | 0.00 | 0.00 | 0.00 | 35 | 1008.6 |
| 20260505171059 | 82 | 200 | 5.2 | 14.8 | 0.00 | 0.00 | 0.00 | 36 | 1008.6 |
| 20260505170556 | 81 | 189 | 9.6 | 14.8 | 0.00 | 0.00 | 0.00 | 35 | 1008.7 |
| 20260505170026 | 81 | 229 | 7.8 | 13.9 | 0.00 | 0.00 | 0.00 | 36 | 1008.8 |
| 20260505165544 | 81 | 210 | 8.7 | 14.8 | 0.00 | 0.00 | 0.00 | 35 | 1008.9 |
| 20260505165044 | 82 | 246 | 7.0 | 14.8 | 0.00 | 0.00 | 0.00 | 34 | 1008.9 |
| 20260505164542 | 82 | 184 | 9.6 | 19.1 | 0.00 | 0.00 | 0.00 | 34 | 1009.0 |
| 20260505164041 | 82 | 211 | 8.7 | 19.1 | 0.00 | 0.00 | 0.00 | 34 | 1009.1 |
| 20260505163534 | 82 | 236 | 10.4 | 19.1 | 0.00 | 0.00 | 0.00 | 33 | 1009.2 |
| 20260505163030 | 82 | 192 | 7.8 | 19.1 | 0.00 | 0.00 | 0.00 | 35 | 1009.2 |
| 20260505162541 | 82 | 217 | 7.0 | 16.5 | 0.00 | 0.00 | 0.00 | 36 | 1009.1 |
| 20260505162041 | 81 | 252 | 5.2 | 15.6 | 0.00 | 0.00 | 0.00 | 36 | 1009.3 |
| 20260505161539 | 81 | 215 | 7.0 | 19.1 | 0.00 | 0.00 | 0.00 | 35 | 1009.5 |
| 20260505161039 | 81 | 227 | 7.8 | 19.1 | 0.00 | 0.00 | 0.00 | 36 | 1009.6 |
| 20260505160539 | 81 | 199 | 7.8 | 18.2 | 0.00 | 0.00 | 0.00 | 37 | 1009.7 |
| 20260505153047 | 79 | 212 | 7.8 | 17.4 | 0.00 | 0.00 | 0.00 | 39 | 1009.9 |
| 20260505152542 | 79 | 181 | 5.2 | 15.6 | 0.00 | 0.00 | 0.00 | 41 | 1009.8 |
| 20260505152102 | 79 | 195 | 7.8 | 15.6 | 0.00 | 0.00 | 0.00 | 41 | 1009.8 |
| 20260505151600 | 78 | 215 | 5.2 | 12.2 | 0.00 | 0.00 | 0.00 | 44 | 1009.7 |
| 20260505151035 | 77 | 181 | 5.2 | 16.5 | 0.00 | 0.00 | 0.00 | 43 | 1009.8 |
| 20260505150526 | 78 | 184 | 10.4 | 15.6 | 0.00 | 0.00 | 0.00 | 42 | 1009.9 |
| 20260505140545 | 74 | 209 | 8.7 | 14.8 | 0.00 | 0.00 | 0.00 | 47 | 1010.0 |
| 20260505140105 | 73 | 195 | 8.7 | 16.5 | 0.00 | 0.00 | 0.00 | 48 | 1010.1 |
| 20260505125028 | 67 | 157 | 9.6 | 14.8 | 0.00 | 0.00 | 0.00 | 57 | 1010.4 |
| 20260505124543 | 67 | 162 | 11.3 | 14.8 | 0.00 | 0.00 | 0.00 | 57 | 1010.5 |
| 20260505124041 | 66 | 188 | 10.4 | 13.9 | 0.00 | 0.00 | 0.00 | 58 | 1010.5 |
| 20260505123531 | 66 | 167 | 8.7 | 13.9 | 0.00 | 0.00 | 0.00 | 59 | 1010.5 |
| 20260505123026 | 65 | 169 | 10.4 | 15.6 | 0.00 | 0.00 | 0.00 | 59 | 1010.6 |
| 20260505122605 | 65 | 175 | 7.8 | 15.6 | 0.00 | 0.00 | 0.00 | 60 | 1010.5 |
| 20260505122102 | 64 | 168 | 9.6 | 12.2 | 0.00 | 0.00 | 0.00 | 60 | 1010.6 |
| 20260505121541 | 64 | 171 | 7.8 | 11.3 | 0.00 | 0.00 | 0.00 | 61 | 1010.7 |
| 20260505121040 | 64 | 163 | 8.7 | 11.3 | 0.00 | 0.00 | 0.00 | 61 | 1010.6 |
| 20260505120534 | 63 | 168 | 10.4 | 11.3 | 0.00 | 0.00 | 0.00 | 61 | 1010.7 |
| 20260505120029 | 63 | 148 | 6.1 | 12.2 | 0.00 | 0.00 | 0.00 | 62 | 1010.6 |
| 20260505115604 | 63 | 143 | 8.7 | 12.2 | 0.00 | 0.00 | 0.00 | 62 | 1010.5 |
| 20260505115104 | 63 | 140 | 7.8 | 12.2 | 0.00 | 0.00 | 0.00 | 62 | 1010.6 |
| 20260505114536 | 62 | 176 | 7.0 | 12.2 | 0.00 | 0.00 | 0.00 | 64 | 1010.6 |
| 20260505114033 | 62 | 161 | 8.7 | 12.2 | 0.00 | 0.00 | 0.00 | 64 | 1010.6 |
| 20260505113529 | 61 | 169 | 6.1 | 9.6 | 0.00 | 0.00 | 0.00 | 65 | 1010.5 |
| 20260505113026 | 61 | 166 | 5.2 | 9.6 | 0.00 | 0.00 | 0.00 | 65 | 1010.4 |
| 20260505112602 | 61 | 141 | 6.1 | 8.7 | 0.00 | 0.00 | 0.00 | 66 | 1010.4 |
| 20260505112037 | 61 | 136 | 6.1 | 8.7 | 0.00 | 0.00 | 0.00 | 66 | 1010.4 |
| 20260505111531 | 60 | 169 | 5.2 | 8.7 | 0.00 | 0.00 | 0.00 | 66 | 1010.4 |
| 20260505111027 | 60 | 163 | 7.0 | 8.7 | 0.00 | 0.00 | 0.00 | 66 | 1010.3 |
| 20260505110543 | 60 | 142 | 5.2 | 8.7 | 0.00 | 0.00 | 0.00 | 67 | 1010.2 |
| 20260505102043 | 60 | 160 | 3.5 | 4.3 | 0.00 | 0.00 | 0.00 | 67 | 1010.1 |
| 20260505101535 | 60 | 174 | 2.6 | 5.2 | 0.00 | 0.00 | 0.00 | 67 | 1010.0 |
| 20260505101053 | 60 | 174 | 2.6 | 6.1 | 0.00 | 0.00 | 0.00 | 67 | 1010.0 |
| 20260505100604 | 60 | 165 | 5.2 | 6.1 | 0.00 | 0.00 | 0.00 | 67 | 1010.0 |
| 20260505100036 | 60 | 177 | 4.3 | 6.1 | 0.00 | 0.00 | 0.00 | 67 | 1009.9 |
| 20260505095553 | 60 | 183 | 3.5 | 6.1 | 0.00 | 0.00 | 0.00 | 67 | 1010.0 |
| 20260505095026 | 60 | 196 | 2.6 | 6.1 | 0.00 | 0.00 | 0.00 | 66 | 1010.0 |
| 20260505094540 | 60 | 181 | 3.5 | 5.2 | 0.00 | 0.00 | 0.00 | 66 | 1009.9 |
| 20260505094041 | 60 | 168 | 4.3 | 6.1 | 0.00 | 0.00 | 0.00 | 66 | 1009.6 |
| 20260505093559 | 60 | 173 | 4.3 | 6.1 | 0.00 | 0.00 | 0.00 | 65 | 1009.6 |
| 20260505093039 | 60 | 169 | 4.3 | 8.7 | 0.00 | 0.00 | 0.00 | 65 | 1009.5 |
| 20260505092557 | 60 | 167 | 6.1 | 8.7 | 0.00 | 0.00 | 0.00 | 65 | 1009.5 |
| 20260505092032 | 60 | 172 | 6.1 | 7.8 | 0.00 | 0.00 | 0.00 | 65 | 1009.5 |
| 20260505091524 | 60 | 167 | 6.1 | 7.8 | 0.00 | 0.00 | 0.00 | 65 | 1009.5 |
| 20260505091043 | 61 | 163 | 3.5 | 6.1 | 0.00 | 0.00 | 0.00 | 65 | 1009.5 |
| 20260505090540 | 61 | 155 | 5.2 | 6.1 | 0.00 | 0.00 | 0.00 | 64 | 1009.5 |
| 20260505090035 | 61 | 173 | 4.3 | 6.1 | 0.00 | 0.00 | 0.00 | 64 | 1009.5 |
| 20260505085530 | 61 | 165 | 4.3 | 7.0 | 0.00 | 0.00 | 0.00 | 63 | 1009.5 |
| 20260505085025 | 61 | 169 | 3.5 | 7.0 | 0.00 | 0.00 | 0.00 | 63 | 1009.5 |
| 20260505084536 | 61 | 182 | 4.3 | 7.0 | 0.00 | 0.00 | 0.00 | 63 | 1009.5 |
| 20260505084032 | 62 | 177 | 3.5 | 8.7 | 0.00 | 0.00 | 0.00 | 62 | 1009.5 |
| 20260505083525 | 62 | 180 | 5.2 | 8.7 | 0.00 | 0.00 | 0.00 | 62 | 1009.5 |
| 20260505083043 | 62 | 177 | 6.1 | 9.6 | 0.00 | 0.00 | 0.00 | 62 | 1009.3 |
| 20260505082603 | 62 | 159 | 6.1 | 12.2 | 0.00 | 0.00 | 0.00 | 62 | 1009.3 |
| 20260505082036 | 62 | 170 | 7.8 | 11.3 | 0.00 | 0.00 | 0.00 | 62 | 1009.3 |
| 20260505081529 | 62 | 165 | 8.7 | 13.0 | 0.00 | 0.00 | 0.00 | 61 | 1009.2 |
| 20260505081047 | 62 | 177 | 7.8 | 12.2 | 0.00 | 0.00 | 0.00 | 61 | 1009.2 |
| 20260505080543 | 62 | 190 | 9.6 | 14.8 | 0.00 | 0.00 | 0.00 | 61 | 1009.2 |
| 20260505080040 | 62 | 159 | 10.4 | 14.8 | 0.00 | 0.00 | 0.00 | 61 | 1009.1 |
| 20260505075530 | 62 | 155 | 9.6 | 11.3 | 0.00 | 0.00 | 0.00 | 61 | 1009.2 |
| 20260505075048 | 62 | 182 | 7.8 | 9.6 | 0.00 | 0.00 | 0.00 | 62 | 1009.1 |
| 20260505074543 | 62 | 163 | 8.7 | 10.4 | 0.00 | 0.00 | 0.00 | 62 | 1009.0 |
| 20260505074038 | 62 | 171 | 7.0 | 9.6 | 0.00 | 0.00 | 0.00 | 63 | 1009.0 |
| 20260505073540 | 62 | 182 | 7.0 | 9.6 | 0.00 | 0.00 | 0.00 | 63 | 1008.9 |
| 20260505073041 | 61 | 173 | 6.1 | 9.6 | 0.00 | 0.00 | 0.00 | 63 | 1008.9 |
| 20260505072532 | 61 | 169 | 6.1 | 9.6 | 0.00 | 0.00 | 0.00 | 63 | 1008.9 |
| 20260505072027 | 61 | 167 | 6.1 | 8.7 | 0.00 | 0.00 | 0.00 | 64 | 1008.9 |
| 20260505071604 | 61 | 161 | 6.1 | 8.7 | 0.00 | 0.00 | 0.00 | 64 | 1008.9 |
| 20260505071043 | 61 | 167 | 6.1 | 7.8 | 0.00 | 0.00 | 0.00 | 64 | 1008.9 |
| 20260505070540 | 61 | 170 | 7.0 | 7.8 | 0.00 | 0.00 | 0.00 | 64 | 1008.8 |
| 20260505070043 | 61 | 149 | 6.1 | 7.8 | 0.00 | 0.00 | 0.00 | 65 | 1008.8 |
| 20260505065534 | 61 | 161 | 5.2 | 7.8 | 0.00 | 0.00 | 0.00 | 65 | 1008.8 |
| 20260505065028 | 61 | 155 | 5.2 | 7.8 | 0.00 | 0.00 | 0.00 | 65 | 1008.9 |
| 20260505064543 | 61 | 145 | 4.3 | 6.1 | 0.00 | 0.00 | 0.00 | 65 | 1008.9 |
| 20260505064041 | 62 | 173 | 3.5 | 5.2 | 0.00 | 0.00 | 0.00 | 65 | 1008.9 |
| 20260505063532 | 62 | 173 | 4.3 | 5.2 | 0.00 | 0.00 | 0.00 | 64 | 1009.1 |
| 20260505063026 | 62 | 172 | 5.2 | 7.0 | 0.00 | 0.00 | 0.00 | 64 | 1009.1 |
| 20260505062603 | 62 | 180 | 5.2 | 7.0 | 0.00 | 0.00 | 0.00 | 64 | 1009.2 |
| 20260505062044 | 62 | 179 | 6.1 | 7.8 | 0.00 | 0.00 | 0.00 | 63 | 1009.1 |
| 20260505061541 | 62 | 181 | 5.2 | 8.7 | 0.00 | 0.00 | 0.00 | 63 | 1009.2 |
| 20260505061036 | 63 | 146 | 5.2 | 8.7 | 0.00 | 0.00 | 0.00 | 63 | 1009.2 |
| 20260505060527 | 62 | 172 | 5.2 | 7.8 | 0.00 | 0.00 | 0.00 | 63 | 1009.2 |
| 20260505060025 | 63 | 148 | 5.2 | 7.8 | 0.00 | 0.00 | 0.00 | 63 | 1009.4 |
| 20260505055542 | 63 | 180 | 4.3 | 8.7 | 0.00 | 0.00 | 0.00 | 63 | 1009.3 |
| 20260505055038 | 63 | 161 | 6.1 | 8.7 | 0.00 | 0.00 | 0.00 | 63 | 1009.3 |
| 20260505054526 | 63 | 140 | 4.3 | 7.8 | 0.00 | 0.00 | 0.00 | 63 | 1009.2 |
| 20260505054045 | 63 | 139 | 5.2 | 8.7 | 0.00 | 0.00 | 0.00 | 63 | 1009.3 |
| 20260505053538 | 63 | 166 | 6.1 | 8.7 | 0.00 | 0.00 | 0.00 | 63 | 1009.2 |
| 20260505053056 | 63 | 151 | 5.2 | 7.8 | 0.00 | 0.00 | 0.00 | 62 | 1009.4 |
| 20260505052526 | 63 | 152 | 5.2 | 9.6 | 0.00 | 0.00 | 0.00 | 61 | 1009.4 |
| 20260505052041 | 63 | 169 | 5.2 | 13.0 | 0.00 | 0.00 | 0.00 | 61 | 1009.3 |
| 20260505051601 | 64 | 165 | 6.1 | 13.0 | 0.00 | 0.00 | 0.00 | 61 | 1009.4 |
| 20260505051031 | 64 | 153 | 8.7 | 13.0 | 0.00 | 0.00 | 0.00 | 61 | 1009.4 |
| 20260505050524 | 64 | 157 | 7.8 | 10.4 | 0.00 | 0.00 | 0.00 | 60 | 1009.3 |
| 20260505041543 | 65 | 169 | 7.0 | 8.7 | 0.00 | 0.00 | 0.00 | 57 | 1008.9 |
| 20260505041044 | 66 | 165 | 7.0 | 8.7 | 0.00 | 0.00 | 0.00 | 57 | 1009.1 |
| 20260505040540 | 66 | 165 | 6.1 | 9.6 | 0.00 | 0.00 | 0.00 | 56 | 1009.0 |
| 20260505040035 | 66 | 175 | 7.0 | 10.4 | 0.00 | 0.00 | 0.00 | 56 | 1008.8 |
| 20260505035531 | 66 | 174 | 7.8 | 10.4 | 0.00 | 0.00 | 0.00 | 55 | 1008.9 |
| 20260505035026 | 66 | 195 | 7.8 | 11.3 | 0.00 | 0.00 | 0.00 | 55 | 1009.0 |
| 20260505034538 | 66 | 173 | 8.7 | 13.0 | 0.00 | 0.00 | 0.00 | 55 | 1008.9 |
| 20260505034032 | 66 | 180 | 9.6 | 12.2 | 0.00 | 0.00 | 0.00 | 55 | 1008.8 |
| 20260505033524 | 66 | 185 | 7.0 | 11.3 | 0.00 | 0.00 | 0.00 | 55 | 1008.8 |
| 20260505033039 | 66 | 173 | 7.0 | 9.6 | 0.00 | 0.00 | 0.00 | 55 | 1008.9 |
| 20260505032554 | 66 | 178 | 7.0 | 10.4 | 0.00 | 0.00 | 0.00 | 55 | 1009.0 |
| 20260505032024 | 66 | 160 | 7.8 | 11.3 | 0.00 | 0.00 | 0.00 | 55 | 1009.1 |
| 20260505031542 | 66 | 178 | 7.8 | 11.3 | 0.00 | 0.00 | 0.00 | 55 | 1009.1 |
| 20260505031038 | 66 | 205 | 8.7 | 10.4 | 0.00 | 0.00 | 0.00 | 55 | 1009.1 |
| 20260505030531 | 66 | 185 | 7.0 | 9.6 | 0.00 | 0.00 | 0.00 | 54 | 1009.1 |
| 20260505030024 | 66 | 188 | 7.8 | 9.6 | 0.00 | 0.00 | 0.00 | 54 | 1009.1 |
| 20260505025543 | 66 | 178 | 6.1 | 10.4 | 0.00 | 0.00 | 0.00 | 55 | 1009.0 |
| 20260505025035 | 66 | 183 | 6.1 | 7.8 | 0.00 | 0.00 | 0.00 | 54 | 1008.8 |
| 20260505024526 | 66 | 167 | 6.1 | 8.7 | 0.00 | 0.00 | 0.00 | 54 | 1008.8 |
| 20260505024105 | 66 | 162 | 6.1 | 8.7 | 0.00 | 0.00 | 0.00 | 54 | 1008.7 |
| 20260505023601 | 66 | 170 | 6.1 | 8.7 | 0.00 | 0.00 | 0.00 | 53 | 1008.8 |
| 20260505023037 | 66 | 175 | 5.2 | 8.7 | 0.00 | 0.00 | 0.00 | 54 | 1008.8 |
| 20260505022530 | 66 | 188 | 6.1 | 8.7 | 0.00 | 0.00 | 0.00 | 53 | 1008.7 |
| 20260505022027 | 67 | 158 | 6.1 | 10.4 | 0.00 | 0.00 | 0.00 | 53 | 1008.6 |
| 20260505021535 | 67 | 165 | 7.8 | 10.4 | 0.00 | 0.00 | 0.00 | 53 | 1008.5 |
| 20260505021028 | 67 | 174 | 7.0 | 9.6 | 0.00 | 0.00 | 0.00 | 53 | 1008.6 |
| 20260505020524 | 67 | 153 | 7.0 | 9.6 | 0.00 | 0.00 | 0.00 | 52 | 1008.5 |
| 20260505020042 | 67 | 161 | 7.0 | 13.9 | 0.00 | 0.00 | 0.00 | 52 | 1008.4 |
| 20260505015601 | 67 | 166 | 8.7 | 13.9 | 0.00 | 0.00 | 0.00 | 52 | 1008.5 |
| 20260505015034 | 68 | 168 | 7.0 | 9.6 | 0.00 | 0.00 | 0.00 | 52 | 1008.5 |
| 20260505014524 | 68 | 182 | 7.0 | 9.6 | 0.00 | 0.00 | 0.00 | 52 | 1008.7 |
| 20260505014044 | 68 | 186 | 5.2 | 8.7 | 0.00 | 0.00 | 0.00 | 52 | 1008.8 |
| 20260505013541 | 68 | 187 | 6.1 | 12.2 | 0.00 | 0.00 | 0.00 | 51 | 1008.6 |
| 20260505013041 | 68 | 196 | 7.8 | 12.2 | 0.00 | 0.00 | 0.00 | 51 | 1008.6 |
| 20260505012532 | 68 | 182 | 8.7 | 13.0 | 0.00 | 0.00 | 0.00 | 51 | 1008.5 |
| 20260505012029 | 68 | 192 | 10.4 | 14.8 | 0.00 | 0.00 | 0.00 | 50 | 1008.5 |
| 20260505011543 | 68 | 205 | 13.0 | 16.5 | 0.00 | 0.00 | 0.00 | 49 | 1008.4 |
| 20260505011100 | 68 | 196 | 12.2 | 16.5 | 0.00 | 0.00 | 0.00 | 47 | 1008.4 |
| 20260505010555 | 68 | 175 | 8.7 | 11.3 | 0.00 | 0.00 | 0.00 | 46 | 1008.2 |
| 20260505010027 | 69 | 171 | 7.8 | 13.0 | 0.00 | 0.00 | 0.00 | 46 | 1007.9 |
| 20260505005543 | 69 | 150 | 8.7 | 13.0 | 0.00 | 0.00 | 0.00 | 46 | 1007.9 |
| 20260505005043 | 69 | 169 | 7.8 | 12.2 | 0.00 | 0.00 | 0.00 | 45 | 1007.9 |
| 20260505004601 | 69 | 148 | 7.0 | 12.2 | 0.00 | 0.00 | 0.00 | 45 | 1007.9 |
| 20260505004059 | 69 | 161 | 7.0 | 10.4 | 0.00 | 0.00 | 0.00 | 45 | 1007.8 |
| 20260505003532 | 69 | 140 | 7.8 | 12.2 | 0.00 | 0.00 | 0.00 | 45 | 1007.9 |
| 20260505003026 | 70 | 167 | 8.7 | 12.2 | 0.00 | 0.00 | 0.00 | 44 | 1007.8 |
| 20260505002538 | 70 | 175 | 7.0 | 14.8 | 0.00 | 0.00 | 0.00 | 44 | 1007.7 |
| 20260505002032 | 70 | 160 | 7.8 | 14.8 | 0.00 | 0.00 | 0.00 | 44 | 1007.6 |
| 20260505001525 | 70 | 171 | 8.7 | 13.0 | 0.00 | 0.00 | 0.00 | 43 | 1007.5 |
| 20260505001026 | 70 | 168 | 9.6 | 13.0 | 0.00 | 0.00 | 0.00 | 43 | 1007.6 |
| 20260505000541 | 70 | 163 | 10.4 | 12.2 | 0.00 | 0.00 | 0.00 | 43 | 1007.6 |
| 20260505000042 | 70 | 161 | 7.8 | 12.2 | 0.00 | 0.00 | 0.00 | 43 | 1007.6 |
| 20260504235529 | 71 | 167 | 8.7 | 12.2 | 0.00 | 0.00 | 0.00 | 43 | 1007.5 |
| 20260504235048 | 71 | 175 | 7.8 | 11.3 | 0.00 | 0.00 | 0.00 | 43 | 1007.5 |
| 20260504234544 | 71 | 155 | 7.0 | 12.2 | 0.00 | 0.00 | 0.00 | 43 | 1007.5 |
| 20260504234038 | 71 | 159 | 7.8 | 12.2 | 0.00 | 0.00 | 0.00 | 41 | 1007.5 |
| 20260504233533 | 72 | 144 | 7.0 | 10.4 | 0.00 | 0.00 | 0.00 | 42 | 1007.5 |
| 20260504233024 | 72 | 154 | 7.0 | 12.2 | 0.00 | 0.00 | 0.00 | 41 | 1007.4 |
| 20260504232542 | 72 | 163 | 8.7 | 12.2 | 0.00 | 0.00 | 0.00 | 41 | 1007.4 |
| 20260504232038 | 72 | 168 | 7.8 | 13.9 | 0.00 | 0.00 | 0.00 | 41 | 1007.4 |
| 20260504231530 | 73 | 148 | 9.6 | 12.2 | 0.00 | 0.00 | 0.00 | 41 | 1007.4 |
| 20260504231047 | 73 | 162 | 7.0 | 12.2 | 0.00 | 0.00 | 0.00 | 41 | 1007.4 |